FW9594 Weather Reports


time (UTC)temp
F
wind
direction
speed
knots
gust
knots
rain 1hr
in
rain 24hr
in
rain mn
in
humidity
%
barometer
mb
20260509161601 80 37 3.5 6.1 0.00 0.00 0.00 65 1010.1
20260509160601 80 63 3.5 6.1 0.00 0.00 0.00 65 1010.0
20260509155602 79 8 2.6 5.2 0.00 0.00 0.00 62 1010.0
20260509154601 79 30 3.5 8.7 0.00 0.00 0.00 65 1009.9
20260509153602 79 24 3.5 7.8 0.00 0.00 0.00 63 1009.9
20260509153040 79 250 1.7 7.8 0.00 0.00 0.00 63 1010.0
20260509152049 78 51 5.2 9.6 0.00 0.00 0.00 65 1010.0
20260509150601 78 41 3.5 8.7 0.00 0.00 0.00 73 1010.0
20260509150041 76 347 2.6 8.7 0.00 0.00 0.00 75 1010.0
20260509144601 76 34 2.6 7.8 0.00 0.00 0.00 77 1010.0
20260509143602 75 38 4.3 6.1 0.00 0.00 0.00 78 1010.0
20260509142557 74 4 1.7 6.1 0.00 0.00 0.00 80 1009.9
20260509141552 74 296 1.7 6.1 0.00 0.00 0.00 80 1009.9
20260509140547 73 52 2.6 6.1 0.00 0.00 0.00 80 1010.0
20260509135542 73 300 1.7 5.2 0.00 0.00 0.00 81 1010.0
20260509134537 73 326 1.7 6.1 0.00 0.00 0.00 82 1009.9
20260509133531 72 39 2.6 7.8 0.00 0.00 0.00 83 1009.8
20260509132533 71 54 2.6 6.1 0.00 0.00 0.00 84 1009.6
20260509131530 71 38 6.1 7.8 0.00 0.00 0.00 85 1009.6
20260509130527 70 49 3.5 7.8 0.00 0.00 0.00 86 1009.8
20260509125523 69 41 3.5 7.8 0.00 0.00 0.00 88 1009.6
20260509124523 68 16 2.6 5.2 0.00 0.01 0.00 89 1009.6
20260509123522 68 28 4.3 7.8 0.00 0.02 0.00 89 1009.6
20260509122522 68 49 1.7 5.2 0.00 0.04 0.00 90 1009.8
20260509121522 67 23 2.6 4.3 0.00 0.05 0.00 90 1009.6
20260509120522 67 265 0.9 3.5 0.00 0.15 0.00 90 1009.6
20260509115958 67 49 2.6 4.3 0.00 0.15 0.00 90 1009.4
20260509114522 67 285 2.6 4.3 0.00 0.15 0.00 89 1009.4
20260509114005 67 37 0.9 5.2 0.00 0.15 0.00 88 1009.2
20260509112523 67 75 1.7 5.2 0.00 0.15 0.00 87 1008.7
20260509111523 68 281 2.6 4.3 0.00 0.15 0.00 86 1008.7
20260509110523 68 337 1.7 4.3 0.00 0.15 0.00 86 1008.4
20260509105522 68 271 3.5 4.3 0.00 0.15 0.00 86 1008.2
20260509104522 68 286 1.7 2.6 0.00 0.15 0.00 87 1007.9
20260509103523 68 278 0.0 0.0 0.00 0.16 0.00 87 1007.9
20260509102522 68 276 0.0 1.7 0.00 0.29 0.00 87 1007.8
20260509102000 68 276 0.0 1.7 0.00 0.35 0.00 87 1007.7
20260509100523 68 279 0.0 1.7 0.00 0.35 0.00 86 1007.7
20260509095522 69 281 0.0 0.9 0.00 0.36 0.00 86 1007.7
20260509095002 69 333 0.0 0.0 0.00 0.37 0.00 85 1007.4
20260509093525 69 37 0.0 0.0 0.00 0.37 0.00 84 1007.2
20260509092524 70 345 0.0 0.0 0.00 0.37 0.00 82 1007.3
20260509091524 71 231 0.0 0.9 0.00 0.37 0.00 81 1006.9
20260509090524 70 320 0.0 3.5 0.00 0.37 0.00 83 1007.0
20260509085524 71 279 0.0 2.6 0.00 0.37 0.00 85 1007.4
20260509085009 71 299 0.9 3.5 0.00 0.37 0.00 85 1007.1
20260509083524 70 51 0.0 3.5 0.00 0.38 0.00 85 1005.6
20260509083008 70 221 1.7 5.2 0.00 0.38 0.00 85 1005.1
20260509081523 70 175 0.9 6.1 0.00 0.40 0.00 86 1005.5
20260509080524 71 214 0.9 3.5 0.00 0.40 0.00 86 1006.2
20260509075524 71 138 1.7 5.2 0.00 0.41 0.00 86 1006.9
20260509074955 70 212 2.6 5.2 0.00 0.42 0.00 86 1007.6
20260509073524 70 171 0.9 6.1 0.00 0.42 0.00 87 1008.3
20260509072524 70 230 1.7 5.2 0.00 0.43 0.00 87 1008.3
20260509071524 70 227 1.7 5.2 0.00 0.45 0.00 87 1008.7
20260509070523 69 233 1.7 5.2 0.00 0.45 0.00 88 1009.1
20260509065525 69 317 0.0 5.2 0.00 0.45 0.00 88 1009.3
20260509065031 69 219 0.9 5.2 0.00 0.45 0.00 88 1009.5
20260509063523 69 296 3.5 5.2 0.00 0.45 0.00 88 1009.9
20260509062524 69 292 3.5 4.3 0.00 0.45 0.00 89 1009.9
20260509061524 69 274 0.9 3.5 0.00 0.45 0.00 88 1009.8
20260509061441 69 180 0.9 1.7 0.00 0.45 0.00 87 1009.5
20260509055523 69 230 0.0 0.0 0.00 0.45 0.00 86 1009.8
20260509054523 69 154 0.0 0.0 0.00 0.45 0.00 85 1009.5
20260509053959 69 114 0.0 0.0 0.00 0.45 0.00 85 1010.1
20260509052524 70 113 0.0 0.9 0.00 0.45 0.00 83 1010.4
20260509051523 70 37 0.0 1.7 0.00 0.45 0.00 83 1010.6
20260509050523 70 8 1.7 4.3 0.00 0.45 0.00 84 1010.8
20260509045959 70 38 2.6 3.5 0.00 0.45 0.45 85 1010.8
20260509044523 70 103 0.0 0.0 0.00 0.45 0.45 83 1009.5
20260509043523 71 103 0.0 0.0 0.00 0.45 0.45 82 1009.5
20260509042523 71 103 0.0 0.0 0.00 0.45 0.45 81 1009.6
20260509041523 71 103 0.0 0.0 0.00 0.45 0.45 81 1009.3
20260509040524 71 104 0.0 3.5 0.00 0.45 0.45 80 1009.0
20260509035524 72 214 0.0 0.9 0.00 0.45 0.45 80 1008.9
20260509034523 72 243 0.0 0.9 0.00 0.45 0.45 79 1008.6
20260509033523 73 157 0.0 2.6 0.00 0.45 0.45 79 1009.0
20260509032523 72 51 0.0 0.0 0.00 0.45 0.45 79 1009.9
20260509031524 72 44 0.0 5.2 0.00 0.45 0.45 80 1009.9
20260509030524 72 28 0.9 3.5 0.00 0.45 0.45 81 1009.4
20260509025524 72 87 0.0 1.7 0.00 0.45 0.45 81 1008.8
20260509024523 71 261 0.0 0.0 0.00 0.45 0.45 81 1008.4
20260509023524 71 142 0.0 0.0 0.00 0.45 0.45 81 1008.3
20260509022523 71 145 0.0 1.7 0.00 0.45 0.45 81 1007.9
20260509021524 71 197 0.0 1.7 0.00 0.45 0.45 80 1007.6
20260509020522 72 118 0.0 1.7 0.00 0.45 0.45 80 1007.6
20260509015521 72 48 0.9 3.5 0.00 0.45 0.45 79 1007.3
20260509014521 72 147 0.0 0.9 0.00 0.45 0.45 79 1007.4
20260509014004 73 221 0.0 1.7 0.00 0.45 0.45 78 1007.5
20260509013004 73 259 0.0 0.9 0.00 0.45 0.45 77 1007.8
20260509011521 73 102 0.0 1.7 0.00 0.45 0.45 77 1007.9
20260509010520 73 257 0.0 0.0 0.00 0.45 0.45 77 1007.8
20260509005958 73 266 0.0 0.9 0.00 0.45 0.45 76 1007.7
20260509004520 73 240 0.0 3.5 0.00 0.45 0.45 75 1007.5
20260509003520 74 162 0.0 1.7 0.00 0.45 0.45 73 1007.5
20260509002522 75 250 0.0 1.7 0.00 0.45 0.45 72 1007.1
20260509001521 76 197 0.0 1.7 0.00 0.45 0.45 71 1007.2
20260509000524 76 193 0.9 2.6 0.00 0.45 0.45 70 1007.1
20260508235521 76 250 0.9 4.3 0.00 0.45 0.45 71 1007.3
20260508235007 76 227 0.9 2.6 0.00 0.45 0.45 69 1007.3
20260508233522 76 292 0.0 3.5 0.00 0.45 0.45 70 1007.6
20260508232957 76 125 0.9 5.2 0.00 0.45 0.45 68 1007.6
20260508231522 78 240 1.7 4.3 0.00 0.45 0.45 66 1007.6
20260508231003 78 228 0.9 4.3 0.00 0.45 0.45 65 1007.6
20260508225521 80 220 1.7 3.5 0.00 0.45 0.45 61 1007.7
20260508224521 81 306 0.0 2.6 0.00 0.45 0.45 61 1007.6
20260508223522 80 233 0.9 4.3 0.00 0.45 0.45 62 1007.7
20260508222522 80 186 1.7 3.5 0.00 0.45 0.45 61 1007.8
20260508221522 80 283 1.7 5.2 0.00 0.45 0.45 61 1007.8
20260508220521 79 100 1.7 5.2 0.00 0.45 0.45 64 1007.8
20260508215521 79 189 1.7 5.2 0.00 0.45 0.45 62 1007.7
20260508214523 79 274 0.9 4.3 0.00 0.45 0.45 62 1007.8
20260508214008 79 193 0.9 5.2 0.00 0.45 0.45 63 1007.7
20260508212523 79 286 1.7 4.3 0.00 0.45 0.45 60 1007.9
20260508211522 81 240 0.9 4.3 0.00 0.45 0.45 61 1008.2
20260508210522 81 281 0.9 2.6 0.00 0.45 0.45 61 1008.2
20260508205523 80 217 0.9 5.2 0.00 0.45 0.45 62 1008.1
20260508205003 78 250 0.9 2.6 0.00 0.45 0.45 64 1008.3
20260508204448 77 199 0.9 2.6 0.00 0.45 0.45 66 1008.9
20260508202959 75 233 0.9 4.3 0.00 0.45 0.45 67 1009.8
20260508201522 75 274 0.9 3.5 0.00 0.45 0.45 67 1010.1
20260508200523 75 266 0.9 2.6 0.00 0.45 0.45 67 1010.1
20260508195524 76 190 0.9 5.2 0.00 0.45 0.45 67 1010.0
20260508194522 76 271 1.7 3.5 0.00 0.45 0.45 65 1010.0
20260508193523 76 258 1.7 4.3 0.00 0.45 0.45 65 1010.1
20260508192522 77 251 0.9 3.5 0.00 0.45 0.45 65 1010.2
20260508191958 77 192 0.9 3.5 0.00 0.45 0.45 63 1010.1
20260508190522 78 212 0.9 3.5 0.00 0.45 0.45 63 1010.2
20260508185522 78 238 1.7 3.5 0.00 0.45 0.45 61 1010.3
20260508184524 79 199 0.9 5.2 0.00 0.45 0.45 61 1010.3
20260508183523 80 207 0.9 3.5 0.00 0.45 0.45 62 1010.4
20260508183006 79 292 0.9 3.5 0.00 0.45 0.45 64 1010.5
20260508181523 78 131 0.9 3.5 0.00 0.45 0.45 64 1010.7
20260508180522 78 278 1.7 5.2 0.00 0.45 0.45 65 1011.1
20260508180004 77 223 0.9 5.2 0.00 0.45 0.45 68 1011.2
20260508174956 76 276 4.3 7.8 0.00 0.45 0.45 62 1011.3
20260508173522 77 117 0.9 7.8 0.00 0.45 0.45 64 1011.5
20260508172523 76 251 1.7 5.2 0.00 0.45 0.45 64 1011.6
20260508171522 76 224 0.9 2.6 0.00 0.45 0.45 64 1011.6
20260508170522 75 178 0.9 3.5 0.00 0.45 0.45 65 1011.8
20260508165522 74 45 0.9 3.5 0.00 0.45 0.45 67 1012.0
20260508164522 73 152 0.9 4.3 0.00 0.45 0.45 66 1012.2
20260508163523 73 125 0.9 2.6 0.00 0.45 0.45 67 1012.5
20260508162523 73 62 0.9 3.5 0.00 0.45 0.45 67 1012.7